Home   Weather   Basse-Terre   Past weeks
Flag for Guadeloupe

Past Weather in Basse-Terre, Guadeloupe — Yesterday and Last 2 Weeks

Now
73 °F

Light rain. Partly cloudy.


Feels Like: 72 °F
Forecast: 80 / 73 °F
Wind: 12 mph from East

Location: Le Raizet - Guadeloupe

Current Time: Mar 24, 2019 at 3:17:46 am

Latest Report: Mar 24, 2019 at 2:30 am


Visibility: N/A

Pressure: 30.04 "Hg

Humidity: 89%

Dew Point: 70 °F

Location of Basse-TerreLocation

Past Weather in Basse-Terre — Graph

°F

Basse-Terre Temperature Yesterday

Maximum temperature yesterday: 88 °F (at 1:00 pm)
Minimum temperature yesterday: 72 °F (at 6:00 am)
Average temperature yesterday: 79 °F

High & Low Weather Summary for the Past Weeks

 TemperatureHumidityPressure
High88 °F (Mar 23, 1:00 pm)100% (Mar 10, 7:00 am)30.09 "Hg (Mar 10, 7:00 am)
Low64 °F (Mar 17, 4:30 am)43% (Mar 23, 2:00 pm)29.95 "Hg (Mar 9, 4:00 am)
Average76 °F76%30.01 "Hg
* Reported Mar 9 2:00 am — Mar 24 2:00 am, Basse-Terre. Weather by CustomWeather, © 2019

Note: Actual official high and low records may vary slightly from our data, if they occured in-between our weather recording intervals... More about our weather records

Advertising

Basse-Terre Weather History for the Previous 24 Hours

Scroll right to see more
 ConditionsComfort  
Time TempWeatherWind HumidityBarometerVisibility
2:00 am
Sun, Mar 24
73 °FMild.5 mph89%30.04 "HgN/A
1:30 am75 °FClear.8 mph83%30.04 "Hg10 mi
1:00 am75 °FClear.7 mph83%30.04 "Hg10 mi
12:30 am75 °FClear.7 mph83%30.07 "Hg10 mi
12:00 am75 °FPassing clouds.5 mph83%30.07 "HgN/A
11:30 pm
Sat, Mar 23
75 °FPassing clouds.8 mph83%30.07 "HgN/A
11:00 pm75 °FPassing clouds.5 mph83%30.07 "HgN/A
10:30 pm75 °FClear.5 mph83%30.07 "Hg10 mi
10:00 pm75 °FClear.7 mph83%30.07 "Hg10 mi
9:00 pm77 °FClear.9 mph79%30.07 "Hg10 mi
8:30 pm77 °FClear.8 mph79%30.07 "Hg10 mi
8:00 pm77 °FClear.9 mph79%30.07 "Hg10 mi
7:30 pm77 °FClear.10 mph79%30.04 "Hg10 mi
7:00 pm77 °FClear.9 mph74%30.04 "Hg10 mi
6:30 pm79 °FClear.8 mph70%30.04 "Hg10 mi
6:00 pm79 °FSunny.13 mph65%30.04 "Hg10 mi
5:30 pm81 °FSunny.14 mph62%30.01 "Hg10 mi
5:00 pm82 °FSunny.15 mph62%30.01 "Hg10 mi
4:30 pm84 °FSunny.17 mph55%30.01 "Hg10 mi
4:00 pm84 °FPassing clouds.15 mph51%30.01 "HgN/A
3:30 pm86 °FSunny.15 mph46%30.01 "Hg10 mi
3:00 pm86 °FScattered clouds.14 mph43%30.01 "HgN/A
2:30 pm86 °FPartly sunny.16 mph43%30.01 "HgN/A
2:00 pm88 °FOvercast.16 mph43%30.04 "HgN/A
1:30 pm86 °FPartly sunny.15 mph46%30.04 "HgN/A
1:00 pm88 °FPartly sunny.13 mph49%30.07 "HgN/A
12:30 pm86 °FOvercast.17 mph52%30.07 "HgN/A
12:00 pm86 °FOvercast.16 mph46%30.09 "HgN/A
11:30 am86 °FMore clouds than sun.16 mph49%30.09 "HgN/A
11:00 am84 °FMore clouds than sun.13 mph58%30.09 "HgN/A
10:30 am82 °FMore clouds than sun.16 mph58%30.09 "HgN/A
10:00 am81 °FBroken clouds.14 mph66%30.09 "HgN/A
9:30 am81 °FMostly cloudy.15 mph66%30.09 "HgN/A
9:00 am81 °FOvercast.15 mph70%30.09 "HgN/A
8:30 am81 °FOvercast.12 mph66%30.09 "HgN/A
8:00 am77 °FPartly sunny.7 mph79%30.07 "HgN/A
7:30 am77 °FBroken clouds.9 mph79%30.07 "HgN/A
7:00 am75 °FSunny.3 mph83%30.04 "Hg10 mi
6:30 am72 °FBroken clouds.1 mph94%30.04 "HgN/A
6:00 am72 °FPassing clouds.No wind88%30.04 "HgN/A
5:30 am73 °FClear.3 mph83%30.01 "Hg10 mi
5:00 am73 °FClear.2 mph89%30.01 "Hg10 mi
4:30 am73 °FClear.6 mph83%30.01 "Hg10 mi
4:00 am73 °FPassing clouds.6 mph83%30.01 "HgN/A
3:00 am73 °FClear.2 mph83%30.01 "Hg10 mi
Weather by CustomWeather, © 2019

See weather overview